Flag for Canada Weather past 2 weeks in Fort St. John, British Columbia, Canada

Now
68 °F

Sunny.


Feels Like: 68 °F
Forecast: 47 / 78 °F
Wind: 9 mph from South

Location: Fort St John

Current Time: Jul 7, 2015 at 1:16:45 PM

Latest Report: Jul 7, 2015 at 12:00 PM


Visibility: 15 mi

Pressure: 30.08 "Hg (27.76 "Hg at 689m altitude)

Humidity: 56%

Dew point: 52 °F

Location of Fort St. JohnLocation

Historic Weather in Fort St. John — Graph

°F

Fort St. John temperature yesterday

Maximum temperature yesterday: 72 °F (at 1:00 PM)
Minimum temperature yesterday: 46 °F (at 5:00 AM)
Average temperature yesterday: 59 °F

Past Weeks' High & Low Weather Summary

 TemperatureHumidityPressure
High86 °F (Jun 29, 2:00 PM)100% (Jun 23, 5:00 AM)30.27 "Hg (Jun 23, 5:00 AM)
Low43 °F (Jul 5, 4:00 AM)22% (Jul 2, 3:00 PM)29.81 "Hg (Jul 2, 9:00 PM)
Average65 °F59%30.03 "Hg
* Reported Jun 22 12:00 Noon — Jul 7 12:00 Noon, Fort St. John, Weather by CustomWeather, © 2015

Note: Actual official high and low records may vary slightly from our data, if they occured in-between our weather recording intervals... More about our weather records

Advertising

Fort St. John weather history for previous 24 hours

 ConditionsComfort  
Time TempWeatherWind HumidityBarometerVisibility
12:00 PM
Tue, Jul 7
68 °FSunny.9 mph56%30.08 "Hg15 mi
11:00 AM66 °FSunny.7 mph60%30.11 "Hg15 mi
10:00 AM63 °FSunny.8 mph64%30.14 "Hg15 mi
9:00 AM59 °FSunny.10 mph72%30.16 "Hg15 mi
8:00 AM55 °FSunny.6 mph82%30.18 "Hg15 mi
7:00 AM52 °FSunny.6 mph82%30.19 "Hg15 mi
6:00 AM48 °FPassing clouds.5 mph87%30.21 "Hg15 mi
5:00 AM45 °FPassing clouds.6 mph93%30.22 "Hg15 mi
4:00 AM45 °FPassing clouds.6 mph100%30.24 "Hg15 mi
3:00 AM48 °FPartly cloudy.3 mph94%30.25 "Hg15 mi
2:00 AM48 °FMostly cloudy.5 mph87%30.24 "Hg15 mi
1:00 AM52 °FPassing clouds.5 mph82%30.25 "Hg15 mi
12:00 AM54 °FPassing clouds.6 mph77%30.25 "Hg15 mi
11:00 PM
Mon, Jul 6
55 °FPassing clouds.9 mph72%30.25 "Hg15 mi
10:53 PM54 °FPassing clouds.8 mph77%30.26 "Hg15 mi
10:00 PM55 °FPartly sunny.8 mph72%30.25 "Hg15 mi
9:00 PM57 °FPartly sunny.12 mph67%30.25 "Hg15 mi
8:00 PM61 °FCool.9 mph63%30.24 "Hg15 mi
7:00 PM63 °FScattered clouds.12 mph59%30.24 "Hg15 mi
6:00 PM66 °FScattered clouds.10 mph56%30.22 "Hg15 mi
5:00 PM66 °FScattered clouds.17 mph56%30.20 "Hg10 mi
4:00 PM68 °FPartly sunny.17 mph56%30.19 "Hg10 mi
3:00 PM68 °FPartly sunny.17 mph56%30.18 "Hg10 mi
2:00 PM72 °FMostly cloudy.17 mph47%30.16 "Hg10 mi
1:00 PM72 °FMore clouds than sun.16 mph47%30.14 "Hg15 mi
Weather by CustomWeather, © 2015

See weather overviewHow to use our weather pages